Location: Cedar Brake
(32.2526°N, 97.8459°W)
Time: 07:57:39
(UTC+00:00)

CZ-4 R/B - Pass Details

Date: 22 April 2026
Orbit: 490 x 537 km, 97.5° (Epoch: 15 May)

Event Time Altitude Azimuth Distance (km) Brightness Sun altitude
Exits shadow 03:29:38 16° 248° (WSW) 1,403 3.7 -28.1°
Maximum altitude 03:30:29 17° 264° (W) 1,352 3.8 -28.2°
Drops below altitude 10° 03:32:58 10° 306° (NW) 1,728 4.8 -28.6°
Sets 03:35:38 0° 328° (NNW) 2,608 5.8 -29.1°
